owner,sensor,date,latitude,longitude,vertical_datum,direction_of_sea_water_velocity,sea_water_speed,upward_sea_water_velocity,qcFlag 
ADCP,ioos:station:wmo:42387:1,2014-12-01T02:31:00Z,28.2670,-88.3990,79.6,122.0,15.5,1.0,'1111122,1111122,1111122' 
ADCP,ioos:station:wmo:42387:1,2014-12-01T03:31:00Z,28.2670,-88.3990,79.7,123.0,18.6,1.5,'1111122,1111122,1111122' 
ADCP,ioos:station:wmo:42387:1,2014-12-01T04:31:00Z,28.2670,-88.3990,79.7,128.0,22.3,1.8,'1111122,1111122,1111122' 
ADCP,ioos:station:wmo:42387:1,2014-12-01T05:31:00Z,28.2670,-88.3990,79.7,131.0,24.9,3.2,'1111122,1111122,1111122' 
ADCP,ioos:station:wmo:42387:1,2014-12-01T06:31:00Z,28.2670,-88.3990,79.6,132.0,25.9,2.8,'1111122,1111122,1111122' 
ADCP,ioos:station:wmo:42387:1,2014-12-01T07:31:00Z,28.2670,-88.3990,79.7,132.0,24.6,2.6,'1111122,1111122,1111122' 
ADCP,ioos:station:wmo:42387:1,2014-12-01T08:31:00Z,28.2670,-88.3990,79.7,129.0,25.5,2.8,'1111122,1111122,1111122' 
ADCP,ioos:station:wmo:42387:1,2014-12-01T09:31:00Z,28.2670,-88.3990,79.7,131.0,25.4,2.8,'1111122,1111122,1111122' 
ADCP,ioos:station:wmo:42387:1,2014-12-01T10:31:00Z,28.2670,-88.3990,79.7,133.0,25.7,2.6,'1111122,1111122,1111122' 
ADCP,ioos:station:wmo:42387:1,2014-12-01T11:31:00Z,28.2670,-88.3990,79.7,136.0,28.5,3.2,'1111122,1111122,1111122' 
ADCP,ioos:station:wmo:42387:1,2014-12-01T12:31:00Z,28.2670,-88.3990,79.6,134.0,28.9,-0.1,'1111122,1111122,1111122' 
ADCP,ioos:station:wmo:42387:1,2014-12-01T13:11:00Z,28.2670,-88.3990,79.7,133.0,29.5,0.1,'1111122,1111122,1111122' 
ADCP,ioos:station:wmo:42387:1,2014-12-01T19:11:00Z,28.2670,-88.3990,79.6,131.0,26.5,0.2,'1111122,1111122,1111122' 
ADCP,ioos:station:wmo:42387:1,2014-12-01T19:31:00Z,28.2670,-88.3990,79.7,127.0,23.8,-0.7,'1111122,1111122,1111122' 
ADCP,ioos:station:wmo:42387:1,2014-12-01T20:31:00Z,28.2670,-88.3990,79.6,129.0,21.7,0.1,'1111122,1111122,1111122' 
ADCP,ioos:station:wmo:42387:1,2014-12-01T21:31:00Z,28.2670,-88.3990,79.6,122.0,19.2,-0.3,'1111122,1111122,1111122' 
ADCP,ioos:station:wmo:42387:1,2014-12-01T22:31:00Z,28.2670,-88.3990,79.7,118.0,16.3,-1.4,'1111122,1111122,1111122' 
ADCP,ioos:station:wmo:42387:1,2014-12-02T00:31:00Z,28.2670,-88.3990,79.6,128.0,15.2,0.6,'1111122,1111122,1111122' 
ADCP,ioos:station:wmo:42387:1,2014-12-02T01:31:00Z,28.2670,-88.3990,79.7,117.0,18.1,1.3,'1111122,1111122,1111122' 
ADCP,ioos:station:wmo:42387:1,2014-12-02T02:31:00Z,28.2670,-88.3990,79.7,109.0,23.2,0.2,'1111122,1111122,1111122' 
ADCP,ioos:station:wmo:42387:1,2014-12-02T03:31:00Z,28.2670,-88.3990,79.7,115.0,25.8,1.9,'1111122,1111122,1111122' 
ADCP,ioos:station:wmo:42387:1,2014-12-02T04:31:00Z,28.2670,-88.3990,79.6,106.0,29.3,1.0,'1111122,1111122,1111122' 
ADCP,ioos:station:wmo:42387:1,2014-12-02T05:31:00Z,28.2670,-88.3990,79.7,118.0,28.9,2.0,'1111122,1111122,1111122' 
ADCP,ioos:station:wmo:42387:1,2014-12-02T06:11:00Z,28.2670,-88.3990,79.7,112.0,31.8,4.1,'1111122,1111122,1111122' 
ADCP,ioos:station:wmo:42387:1,2014-12-02T07:31:00Z,28.2670,-88.3990,79.7,102.0,32.3,4.8,'1111122,1111122,1111122' 
ADCP,ioos:station:wmo:42387:1,2014-12-02T08:31:00Z,28.2670,-88.3990,79.7,133.0,37.9,5.2,'1111122,1111122,1111122' 
ADCP,ioos:station:wmo:42387:1,2014-12-02T09:31:00Z,28.2670,-88.3990,79.7,129.0,33.4,0.2,'1111122,1111122,1111122' 
ADCP,ioos:station:wmo:42387:1,2014-12-02T10:31:00Z,28.2670,-88.3990,79.7,129.0,36.6,0.7,'1111122,1111122,1111122' 
ADCP,ioos:station:wmo:42387:1,2014-12-02T11:31:00Z,28.2670,-88.3990,79.7,131.0,36.3,2.3,'1111122,1111122,1111122' 
ADCP,ioos:station:wmo:42387:1,2014-12-02T12:31:00Z,28.2670,-88.3990,79.7,124.0,29.5,0.4,'1111122,1111122,1111122' 
ADCP,ioos:station:wmo:42387:1,2014-12-02T13:31:00Z,28.2670,-88.3990,79.7,115.0,26.8,-1.3,'1111122,1111122,1111122' 
ADCP,ioos:station:wmo:42387:1,2014-12-02T14:31:00Z,28.2670,-88.3990,79.7,118.0,26.0,-0.7,'1111122,1111122,1111122' 
ADCP,ioos:station:wmo:42387:1,2014-12-02T15:31:00Z,28.2670,-88.3990,79.7,115.0,22.2,0.2,'1111122,1111122,1111122' 
ADCP,ioos:station:wmo:42387:1,2014-12-02T16:31:00Z,28.2670,-88.3990,79.7,112.0,23.1,0.5,'1111122,1111122,1111122' 
ADCP,ioos:station:wmo:42387:1,2014-12-02T17:31:00Z,28.2670,-88.3990,79.7,111.0,24.3,1.0,'1111122,1111122,1111122' 
ADCP,ioos:station:wmo:42387:1,2014-12-02T18:31:00Z,28.2670,-88.3990,79.7,118.0,24.7,1.0,'1111122,1111122,1111122' 
ADCP,ioos:station:wmo:42387:1,2014-12-02T19:31:00Z,28.2670,-88.3990,79.7,118.0,27.6,1.9,'1111122,1111122,1111122' 
ADCP,ioos:station:wmo:42387:1,2014-12-02T20:31:00Z,28.2670,-88.3990,79.7,118.0,28.3,2.1,'1111122,1111122,1111122' 
ADCP,ioos:station:wmo:42387:1,2014-12-02T21:31:00Z,28.2670,-88.3990,79.7,115.0,27.5,2.0,'1111122,1111122,1111122' 
ADCP,ioos:station:wmo:42387:1,2014-12-02T22:31:00Z,28.2670,-88.3990,79.7,110.0,27.4,2.3,'1111122,1111122,1111122' 
ADCP,ioos:station:wmo:42387:1,2014-12-02T23:31:00Z,28.2670,-88.3990,79.7,108.0,28.4,1.5,'1111122,1111122,1111122' 
ADCP,ioos:station:wmo:42387:1,2014-12-03T00:31:00Z,28.2670,-88.3990,79.7,107.0,25.7,2.4,'1111122,1111122,1111122' 
ADCP,ioos:station:wmo:42387:1,2014-12-03T01:31:00Z,28.2670,-88.3990,79.7,104.0,24.4,3.8,'1111122,1111122,1111122' 
ADCP,ioos:station:wmo:42387:1,2014-12-03T02:31:00Z,28.2670,-88.3990,79.7,99.0,25.7,4.2,'1111122,1111122,1111122' 
ADCP,ioos:station:wmo:42387:1,2014-12-03T03:31:00Z,28.2670,-88.3990,79.7,92.0,25.1,5.3,'1111122,1111122,1111122' 
ADCP,ioos:station:wmo:42387:1,2014-12-03T04:31:00Z,28.2670,-88.3990,79.7,79.0,25.6,4.0,'1111122,1111122,1111122' 
ADCP,ioos:station:wmo:42387:1,2014-12-03T05:31:00Z,28.2670,-88.3990,79.7,71.0,25.8,1.3,'1111122,1111122,1111122' 
ADCP,ioos:station:wmo:42387:1,2014-12-03T06:31:00Z,28.2670,-88.3990,79.7,67.0,28.3,0.9,'1111122,1111122,1111122' 
ADCP,ioos:station:wmo:42387:1,2014-12-03T07:31:00Z,28.2670,-88.3990,79.7,72.0,27.4,0.6,'1111122,1111122,1111122' 
ADCP,ioos:station:wmo:42387:1,2014-12-03T08:31:00Z,28.2670,-88.3990,79.7,72.0,28.4,0.0,'1111122,1111122,1114422' 
ADCP,ioos:station:wmo:42387:1,2014-12-03T09:31:00Z,28.2670,-88.3990,79.7,78.0,26.5,0.7,'1111122,1111122,1111122' 
ADCP,ioos:station:wmo:42387:1,2014-12-03T10:31:00Z,28.2670,-88.3990,79.7,94.0,25.6,1.7,'1111122,1111122,1111122' 
ADCP,ioos:station:wmo:42387:1,2014-12-03T11:31:00Z,28.2670,-88.3990,79.7,91.0,24.9,3.1,'1111122,1111122,1111122' 
ADCP,ioos:station:wmo:42387:1,2014-12-03T12:31:00Z,28.2670,-88.3990,79.7,80.0,28.4,2.7,'1111122,1111122,1111122' 
ADCP,ioos:station:wmo:42387:1,2014-12-03T13:31:00Z,28.2670,-88.3990,79.7,77.0,27.2,2.2,'1111122,1111122,1111122' 
ADCP,ioos:station:wmo:42387:1,2014-12-03T14:31:00Z,28.2670,-88.3990,79.7,90.0,23.0,1.5,'1111122,1111122,1111122' 
ADCP,ioos:station:wmo:42387:1,2014-12-03T15:31:00Z,28.2670,-88.3990,79.7,78.0,19.0,1.4,'1111122,1111122,1111122' 
ADCP,ioos:station:wmo:42387:1,2014-12-03T17:31:00Z,28.2670,-88.3990,79.7,92.0,21.0,1.2,'1111122,1111122,1111122' 
ADCP,ioos:station:wmo:42387:1,2014-12-03T18:31:00Z,28.2670,-88.3990,79.7,77.0,19.7,-0.7,'1111122,1111122,1111122' 
ADCP,ioos:station:wmo:42387:1,2014-12-03T19:31:00Z,28.2670,-88.3990,79.7,79.0,17.8,-1.7,'1111122,1111122,1111122' 
ADCP,ioos:station:wmo:42387:1,2014-12-03T20:31:00Z,28.2670,-88.3990,79.7,82.0,13.4,-2.0,'1111122,1111122,1111122' 
ADCP,ioos:station:wmo:42387:1,2014-12-03T21:31:00Z,28.2670,-88.3990,79.7,93.0,8.9,-2.1,'1111122,1111122,1111122' 
ADCP,ioos:station:wmo:42387:1,2014-12-03T22:31:00Z,28.2670,-88.3990,79.7,85.0,6.6,-3.8,'1111122,1111122,1111122' 
ADCP,ioos:station:wmo:42387:1,2014-12-03T23:31:00Z,28.2670,-88.3990,79.7,64.0,3.4,-6.0,'1111122,1111122,1111122' 
ADCP,ioos:station:wmo:42387:1,2014-12-04T00:31:00Z,28.2670,-88.3990,79.7,108.0,5.2,-3.7,'1111122,1111122,1111122' 
ADCP,ioos:station:wmo:42387:1,2014-12-04T02:31:00Z,28.2670,-88.3990,79.7,107.0,7.7,0.0,'1111122,1111122,1114422' 
ADCP,ioos:station:wmo:42387:1,2014-12-04T03:31:00Z,28.2670,-88.3990,79.7,90.0,8.7,-1.3,'1111122,1111122,1111122' 
ADCP,ioos:station:wmo:42387:1,2014-12-04T04:31:00Z,28.2670,-88.3990,79.7,101.0,12.6,-0.3,'1111122,1111122,1111122' 
ADCP,ioos:station:wmo:42387:1,2014-12-04T05:31:00Z,28.2670,-88.3990,79.7,114.0,15.3,-0.2,'1111122,1111122,1111122' 
ADCP,ioos:station:wmo:42387:1,2014-12-04T06:31:00Z,28.2670,-88.3990,79.7,109.0,17.3,-0.1,'1111122,1111122,1111122' 
ADCP,ioos:station:wmo:42387:1,2014-12-04T07:31:00Z,28.2670,-88.3990,79.7,120.0,21.2,1.4,'1111122,1111122,1111122' 
ADCP,ioos:station:wmo:42387:1,2014-12-04T09:31:00Z,28.2670,-88.3990,79.6,113.0,21.5,0.2,'1111122,1111122,1111122' 
ADCP,ioos:station:wmo:42387:1,2014-12-04T10:31:00Z,28.2670,-88.3990,79.7,115.0,21.3,0.4,'1111122,1111122,1111122' 
ADCP,ioos:station:wmo:42387:1,2014-12-04T12:31:00Z,28.2670,-88.3990,79.7,131.0,17.4,-2.7,'1111122,1111122,1111122' 
ADCP,ioos:station:wmo:42387:1,2014-12-04T13:31:00Z,28.2670,-88.3990,79.7,141.0,16.0,-0.5,'1111122,1111122,1111122' 
ADCP,ioos:station:wmo:42387:1,2014-12-04T14:31:00Z,28.2670,-88.3990,79.6,148.0,18.1,0.5,'1111122,1111122,1111122' 
ADCP,ioos:station:wmo:42387:1,2014-12-04T15:31:00Z,28.2670,-88.3990,79.7,149.0,20.0,1.6,'1111122,1111122,1111122' 
ADCP,ioos:station:wmo:42387:1,2014-12-04T16:31:00Z,28.2670,-88.3990,79.7,160.0,27.2,1.2,'1111122,1111122,1111122' 
ADCP,ioos:station:wmo:42387:1,2014-12-04T17:31:00Z,28.2670,-88.3990,79.6,163.0,27.7,1.9,'1111122,1111122,1111122' 
ADCP,ioos:station:wmo:42387:1,2014-12-04T18:31:00Z,28.2670,-88.3990,79.7,159.0,27.5,0.3,'1111122,1111122,1111122' 
ADCP,ioos:station:wmo:42387:1,2014-12-04T19:31:00Z,28.2670,-88.3990,79.7,161.0,23.3,-1.2,'1111122,1111122,1111122' 
ADCP,ioos:station:wmo:42387:1,2014-12-04T20:11:00Z,28.2670,-88.3990,79.7,157.0,22.5,-0.9,'1111122,1111122,1111122' 
ADCP,ioos:station:wmo:42387:1,2014-12-04T21:31:00Z,28.2670,-88.3990,79.7,153.0,19.2,-0.1,'1111122,1111122,1111122' 
ADCP,ioos:station:wmo:42387:1,2014-12-04T22:31:00Z,28.2670,-88.3990,79.7,144.0,16.2,-3.0,'1111122,1111122,1111122' 
ADCP,ioos:station:wmo:42387:1,2014-12-04T23:31:00Z,28.2670,-88.3990,79.7,140.0,15.1,-3.0,'1111122,1111122,1111122' 
ADCP,ioos:station:wmo:42387:1,2014-12-05T00:31:00Z,28.2670,-88.3990,79.7,153.0,12.6,-1.5,'1111122,1111122,1111122' 
ADCP,ioos:station:wmo:42387:1,2014-12-05T01:31:00Z,28.2670,-88.3990,79.7,151.0,11.6,-2.6,'1111122,1111122,1111122' 
ADCP,ioos:station:wmo:42387:1,2014-12-05T02:31:00Z,28.2670,-88.3990,79.7,153.0,17.7,-0.5,'1111122,1111122,1111122' 
ADCP,ioos:station:wmo:42387:1,2014-12-05T03:31:00Z,28.2670,-88.3990,79.7,150.0,18.9,1.0,'1111122,1111122,1111122' 
ADCP,ioos:station:wmo:42387:1,2014-12-05T04:31:00Z,28.2670,-88.3990,79.7,150.0,17.2,0.0,'1111122,1111122,1114422' 
ADCP,ioos:station:wmo:42387:1,2014-12-05T05:31:00Z,28.2670,-88.3990,79.7,143.0,15.0,-0.3,'1111122,1111122,1111122' 
ADCP,ioos:station:wmo:42387:1,2014-12-05T06:31:00Z,28.2670,-88.3990,79.7,140.0,18.0,0.0,'1111122,1111122,1114422' 
ADCP,ioos:station:wmo:42387:1,2014-12-05T08:31:00Z,28.2670,-88.3990,79.6,151.0,23.5,1.1,'1111122,1111122,1111122' 
ADCP,ioos:station:wmo:42387:1,2014-12-05T09:31:00Z,28.2670,-88.3990,79.7,156.0,25.7,1.0,'1111122,1111122,1111122' 
ADCP,ioos:station:wmo:42387:1,2014-12-05T10:31:00Z,28.2670,-88.3990,79.7,160.0,21.8,0.9,'1111122,1111122,1111122' 
ADCP,ioos:station:wmo:42387:1,2014-12-05T11:31:00Z,28.2670,-88.3990,79.6,161.0,19.4,0.7,'1111122,1111122,1111122' 
ADCP,ioos:station:wmo:42387:1,2014-12-05T12:31:00Z,28.2670,-88.3990,79.6,156.0,20.7,-0.5,'1111122,1111122,1111122' 
ADCP,ioos:station:wmo:42387:1,2014-12-05T13:31:00Z,28.2670,-88.3990,79.6,160.0,21.5,0.0,'1111122,1111122,1114422' 
ADCP,ioos:station:wmo:42387:1,2014-12-05T14:31:00Z,28.2670,-88.3990,79.7,162.0,19.7,-0.9,'1111122,1111122,1111122' 
ADCP,ioos:station:wmo:42387:1,2014-12-05T15:31:00Z,28.2670,-88.3990,79.7,163.0,21.7,-1.7,'1111122,1111122,1111122' 
ADCP,ioos:station:wmo:42387:1,2014-12-05T16:31:00Z,28.2670,-88.3990,79.7,160.0,18.6,-2.1,'1111122,1111122,1111122' 
ADCP,ioos:station:wmo:42387:1,2014-12-05T17:31:00Z,28.2670,-88.3990,79.6,169.0,19.1,-2.0,'1111122,1111122,1111122' 
ADCP,ioos:station:wmo:42387:1,2014-12-05T18:31:00Z,28.2670,-88.3990,79.7,179.0,18.3,-3.3,'1111122,1111122,1111122' 
ADCP,ioos:station:wmo:42387:1,2014-12-05T19:31:00Z,28.2670,-88.3990,79.7,174.0,18.7,-3.5,'1111122,1111122,1111122' 
ADCP,ioos:station:wmo:42387:1,2014-12-05T20:31:00Z,28.2670,-88.3990,79.6,175.0,21.7,-2.0,'1111122,1111122,1111122' 
ADCP,ioos:station:wmo:42387:1,2014-12-05T21:31:00Z,28.2670,-88.3990,79.7,171.0,20.2,-1.8,'1111122,1111122,1111122' 
ADCP,ioos:station:wmo:42387:1,2014-12-05T22:31:00Z,28.2670,-88.3990,79.7,174.0,19.4,-2.0,'1111122,1111122,1111122' 
ADCP,ioos:station:wmo:42387:1,2014-12-05T23:31:00Z,28.2670,-88.3990,79.6,156.0,14.4,-4.1,'1111122,1111122,1111122' 
ADCP,ioos:station:wmo:42387:1,2014-12-06T00:31:00Z,28.2670,-88.3990,79.7,162.0,18.5,-1.0,'1111122,1111122,1111122' 
ADCP,ioos:station:wmo:42387:1,2014-12-06T01:31:00Z,28.2670,-88.3990,79.7,160.0,18.9,-0.6,'1111122,1111122,1111122' 
ADCP,ioos:station:wmo:42387:1,2014-12-06T02:31:00Z,28.2670,-88.3990,79.6,159.0,20.1,-0.8,'1111122,1111122,1111122' 
ADCP,ioos:station:wmo:42387:1,2014-12-06T03:31:00Z,28.2670,-88.3990,79.7,158.0,14.3,-1.7,'1111122,1111122,1111122' 
ADCP,ioos:station:wmo:42387:1,2014-12-06T04:31:00Z,28.2670,-88.3990,79.6,151.0,12.6,-2.1,'1111122,1111122,1111122' 
ADCP,ioos:station:wmo:42387:1,2014-12-06T05:31:00Z,28.2670,-88.3990,79.6,149.0,11.9,-3.0,'1111122,1111122,1111122' 
ADCP,ioos:station:wmo:42387:1,2014-12-06T06:11:00Z,28.2670,-88.3990,79.7,164.0,14.7,-2.2,'1111122,1111122,1111122' 
ADCP,ioos:station:wmo:42387:1,2014-12-06T09:31:00Z,28.2670,-88.3990,79.7,157.0,16.3,-2.1,'1111122,1111122,1111122' 
ADCP,ioos:station:wmo:42387:1,2014-12-06T10:31:00Z,28.2670,-88.3990,79.7,163.0,20.7,-1.0,'1111122,1111122,1111122' 
ADCP,ioos:station:wmo:42387:1,2014-12-06T11:31:00Z,28.2670,-88.3990,79.6,174.0,21.4,-1.9,'1111122,1111122,1111122' 
ADCP,ioos:station:wmo:42387:1,2014-12-06T12:31:00Z,28.2670,-88.3990,79.6,182.0,19.8,-3.7,'1111122,1111122,1111122' 
ADCP,ioos:station:wmo:42387:1,2014-12-06T13:31:00Z,28.2670,-88.3990,79.6,197.0,20.2,-4.7,'1111122,1111122,1111122' 
ADCP,ioos:station:wmo:42387:1,2014-12-06T15:31:00Z,28.2670,-88.3990,79.6,209.0,24.4,-6.4,'1111122,1111122,1111122' 
ADCP,ioos:station:wmo:42387:1,2014-12-06T16:31:00Z,28.2670,-88.3990,79.6,201.0,28.2,-4.9,'1111122,1111122,1111122' 
ADCP,ioos:station:wmo:42387:1,2014-12-06T17:31:00Z,28.2670,-88.3990,79.7,205.0,28.4,-6.6,'1111122,1111122,1111122' 
ADCP,ioos:station:wmo:42387:1,2014-12-06T18:31:00Z,28.2670,-88.3990,79.7,207.0,28.0,-6.5,'1111122,1111122,1111122' 
ADCP,ioos:station:wmo:42387:1,2014-12-06T19:31:00Z,28.2670,-88.3990,79.7,211.0,27.6,-6.8,'1111122,1111122,1111122' 
ADCP,ioos:station:wmo:42387:1,2014-12-06T20:31:00Z,28.2670,-88.3990,79.7,213.0,28.2,-6.5,'1111122,1111122,1111122' 
ADCP,ioos:station:wmo:42387:1,2014-12-06T21:31:00Z,28.2670,-88.3990,79.7,215.0,23.9,-6.0,'1111122,1111122,1111122' 
ADCP,ioos:station:wmo:42387:1,2014-12-06T22:31:00Z,28.2670,-88.3990,79.7,221.0,20.0,-9.0,'1111122,1111122,1111122' 
ADCP,ioos:station:wmo:42387:1,2014-12-06T23:31:00Z,28.2670,-88.3990,79.7,224.0,18.7,-8.5,'1111122,1111122,1111122' 
ADCP,ioos:station:wmo:42387:1,2014-12-07T00:31:00Z,28.2670,-88.3990,79.7,215.0,19.6,-7.9,'1111122,1111122,1111122' 
ADCP,ioos:station:wmo:42387:1,2014-12-07T01:31:00Z,28.2670,-88.3990,79.7,210.0,21.4,-7.4,'1111122,1111122,1111122' 
ADCP,ioos:station:wmo:42387:1,2014-12-07T02:31:00Z,28.2670,-88.3990,79.7,206.0,22.1,-7.5,'1111122,1111122,1111122' 
ADCP,ioos:station:wmo:42387:1,2014-12-07T03:31:00Z,28.2670,-88.3990,79.7,203.0,22.5,-7.0,'1111122,1111122,1111122' 
ADCP,ioos:station:wmo:42387:1,2014-12-07T04:31:00Z,28.2670,-88.3990,79.7,199.0,20.9,-6.0,'1111122,1111122,1111122' 
ADCP,ioos:station:wmo:42387:1,2014-12-07T05:31:00Z,28.2670,-88.3990,79.7,192.0,24.4,-5.0,'1111122,1111122,1111122' 
ADCP,ioos:station:wmo:42387:1,2014-12-07T06:31:00Z,28.2670,-88.3990,79.7,185.0,23.4,-7.0,'1111122,1111122,1111122' 
ADCP,ioos:station:wmo:42387:1,2014-12-07T07:31:00Z,28.2670,-88.3990,79.7,176.0,26.0,-4.5,'1111122,1111122,1111122' 
ADCP,ioos:station:wmo:42387:1,2014-12-07T10:31:00Z,28.2670,-88.3990,79.7,184.0,18.5,-7.0,'1111122,1111122,1111122' 
ADCP,ioos:station:wmo:42387:1,2014-12-07T11:31:00Z,28.2670,-88.3990,79.7,194.0,29.7,-6.1,'1111122,1111122,1111122' 
ADCP,ioos:station:wmo:42387:1,2014-12-07T12:31:00Z,28.2670,-88.3990,79.6,178.0,32.6,-4.5,'1111122,1111122,1111122' 
ADCP,ioos:station:wmo:42387:1,2014-12-07T13:31:00Z,28.2670,-88.3990,79.6,177.0,36.6,-6.0,'1111122,1111122,1111122' 
ADCP,ioos:station:wmo:42387:1,2014-12-07T14:31:00Z,28.2670,-88.3990,79.6,178.0,37.9,-7.8,'1111122,1111122,1111122' 
ADCP,ioos:station:wmo:42387:1,2014-12-07T15:31:00Z,28.2670,-88.3990,79.6,192.0,35.1,-8.5,'1111122,1111122,1111122' 
ADCP,ioos:station:wmo:42387:1,2014-12-07T16:31:00Z,28.2670,-88.3990,79.7,199.0,30.6,-8.7,'1111122,1111122,1111122' 
ADCP,ioos:station:wmo:42387:1,2014-12-07T17:31:00Z,28.2670,-88.3990,79.7,194.0,27.3,-6.7,'1111122,1111122,1111122' 
ADCP,ioos:station:wmo:42387:1,2014-12-07T18:31:00Z,28.2670,-88.3990,79.7,191.0,26.9,-6.3,'1111122,1111122,1111122' 
ADCP,ioos:station:wmo:42387:1,2014-12-07T19:20:00Z,28.2670,-88.3990,79.7,186.0,25.1,-5.1,'1111122,1111122,1111122' 
ADCP,ioos:station:wmo:42387:1,2014-12-07T20:20:00Z,28.2670,-88.3990,79.7,186.0,23.5,-4.2,'1111122,1111122,1111122' 
ADCP,ioos:station:wmo:42387:1,2014-12-07T21:20:00Z,28.2670,-88.3990,79.7,179.0,22.0,-3.2,'1111122,1111122,1111122' 
ADCP,ioos:station:wmo:42387:1,2014-12-07T22:20:00Z,28.2670,-88.3990,79.7,172.0,19.2,-3.7,'1111122,1111122,1111122' 
ADCP,ioos:station:wmo:42387:1,2014-12-07T23:20:00Z,28.2670,-88.3990,79.7,166.0,15.7,-3.5,'1111122,1111122,1111122' 
ADCP,ioos:station:wmo:42387:1,2014-12-08T00:20:00Z,28.2670,-88.3990,79.7,158.0,14.3,-3.0,'1111122,1111122,1111122' 
ADCP,ioos:station:wmo:42387:1,2014-12-08T01:20:00Z,28.2670,-88.3990,79.7,159.0,17.2,-2.9,'1111122,1111122,1111122' 
ADCP,ioos:station:wmo:42387:1,2014-12-08T02:20:00Z,28.2670,-88.3990,79.7,157.0,20.1,-1.2,'1111122,1111122,1111122' 
ADCP,ioos:station:wmo:42387:1,2014-12-08T03:20:00Z,28.2670,-88.3990,79.7,154.0,22.1,-1.3,'1111122,1111122,1111122' 
ADCP,ioos:station:wmo:42387:1,2014-12-08T04:20:00Z,28.2670,-88.3990,79.7,155.0,25.8,-0.4,'1111122,1111122,1111122' 
ADCP,ioos:station:wmo:42387:1,2014-12-08T05:20:00Z,28.2670,-88.3990,79.7,151.0,28.2,1.0,'1111122,1111122,1111122' 
ADCP,ioos:station:wmo:42387:1,2014-12-08T06:20:00Z,28.2670,-88.3990,79.7,150.0,28.5,0.6,'1111122,1111122,1111122' 
ADCP,ioos:station:wmo:42387:1,2014-12-08T07:20:00Z,28.2670,-88.3990,79.6,153.0,28.2,-0.5,'1111122,1111122,1111122' 
ADCP,ioos:station:wmo:42387:1,2014-12-08T08:20:00Z,28.2670,-88.3990,79.6,149.0,30.7,0.2,'1111122,1111122,1111122' 
ADCP,ioos:station:wmo:42387:1,2014-12-08T09:20:00Z,28.2670,-88.3990,79.6,152.0,33.1,0.3,'1111122,1111122,1111122' 
ADCP,ioos:station:wmo:42387:1,2014-12-08T10:20:00Z,28.2670,-88.3990,79.6,152.0,34.5,0.0,'1111122,1111122,1114422' 
ADCP,ioos:station:wmo:42387:1,2014-12-08T11:20:00Z,28.2670,-88.3990,79.7,153.0,36.1,1.2,'1111122,1111122,1111122' 
ADCP,ioos:station:wmo:42387:1,2014-12-08T12:20:00Z,28.2670,-88.3990,79.7,151.0,35.9,0.2,'1111122,1111122,1111122' 
ADCP,ioos:station:wmo:42387:1,2014-12-08T13:20:00Z,28.2670,-88.3990,79.7,157.0,35.7,-0.8,'1111122,1111122,1111122' 
ADCP,ioos:station:wmo:42387:1,2014-12-08T15:00:00Z,28.2670,-88.3990,79.7,164.0,33.7,-2.7,'1111122,1111122,1111122' 
ADCP,ioos:station:wmo:42387:1,2014-12-08T16:20:00Z,28.2670,-88.3990,79.6,172.0,40.3,-0.9,'1111122,1111122,1111122' 
ADCP,ioos:station:wmo:42387:1,2014-12-08T17:20:00Z,28.2670,-88.3990,79.7,175.0,42.0,-0.7,'1111122,1111122,1111122' 
ADCP,ioos:station:wmo:42387:1,2014-12-08T18:20:00Z,28.2670,-88.3990,79.7,177.0,37.8,-2.0,'1111122,1111122,1111122' 
ADCP,ioos:station:wmo:42387:1,2014-12-08T19:20:00Z,28.2670,-88.3990,79.6,176.0,36.0,-2.7,'1111122,1111122,1111122' 
ADCP,ioos:station:wmo:42387:1,2014-12-08T20:20:00Z,28.2670,-88.3990,79.6,178.0,34.0,-4.0,'1111122,1111122,1111122' 
ADCP,ioos:station:wmo:42387:1,2014-12-08T21:20:00Z,28.2670,-88.3990,79.7,180.0,30.5,-5.3,'1111122,1111122,1111122' 
ADCP,ioos:station:wmo:42387:1,2014-12-08T22:20:00Z,28.2670,-88.3990,79.7,180.0,24.7,-5.7,'1111122,1111122,1111122' 
ADCP,ioos:station:wmo:42387:1,2014-12-08T23:20:00Z,28.2670,-88.3990,79.7,181.0,20.1,-3.4,'1111122,1111122,1111122' 
ADCP,ioos:station:wmo:42387:1,2014-12-09T00:20:00Z,28.2670,-88.3990,79.7,172.0,19.9,-1.7,'1111122,1111122,1111122' 
ADCP,ioos:station:wmo:42387:1,2014-12-09T01:20:00Z,28.2670,-88.3990,79.7,163.0,19.7,-1.0,'1111122,1111122,1111122' 
ADCP,ioos:station:wmo:42387:1,2014-12-09T02:20:00Z,28.2670,-88.3990,79.7,162.0,18.3,-0.9,'1111122,1111122,1111122' 
ADCP,ioos:station:wmo:42387:1,2014-12-09T04:20:00Z,28.2670,-88.3990,79.7,157.0,19.2,-0.2,'1111122,1111122,1111122' 
ADCP,ioos:station:wmo:42387:1,2014-12-09T05:20:00Z,28.2670,-88.3990,79.7,150.0,20.4,0.0,'1111122,1111122,1114422' 
ADCP,ioos:station:wmo:42387:1,2014-12-09T06:20:00Z,28.2670,-88.3990,79.7,141.0,22.8,0.0,'1111122,1111122,1114422' 
ADCP,ioos:station:wmo:42387:1,2014-12-09T07:20:00Z,28.2670,-88.3990,79.7,138.0,24.6,0.7,'1111122,1111122,1111122' 
ADCP,ioos:station:wmo:42387:1,2014-12-09T08:20:00Z,28.2670,-88.3990,79.7,144.0,27.2,1.1,'1111122,1111122,1111122' 
ADCP,ioos:station:wmo:42387:1,2014-12-09T09:20:00Z,28.2670,-88.3990,79.6,148.0,29.1,0.8,'1111122,1111122,1111122' 
ADCP,ioos:station:wmo:42387:1,2014-12-09T10:20:00Z,28.2670,-88.3990,79.6,150.0,28.6,0.0,'1111122,1111122,1114422' 
ADCP,ioos:station:wmo:42387:1,2014-12-09T11:20:00Z,28.2670,-88.3990,79.7,150.0,29.4,-0.6,'1111122,1111122,1111122' 
ADCP,ioos:station:wmo:42387:1,2014-12-09T13:00:00Z,28.2670,-88.3990,79.6,151.0,28.2,-2.6,'1111122,1111122,1111122' 
ADCP,ioos:station:wmo:42387:1,2014-12-09T14:20:00Z,28.2670,-88.3990,79.7,156.0,26.9,-3.2,'1111122,1111122,1111122' 
ADCP,ioos:station:wmo:42387:1,2014-12-09T15:20:00Z,28.2670,-88.3990,79.6,158.0,27.8,-2.2,'1111122,1111122,1111122' 
ADCP,ioos:station:wmo:42387:1,2014-12-09T16:20:00Z,28.2670,-88.3990,79.7,161.0,25.0,-1.0,'1111122,1111122,1111122' 
ADCP,ioos:station:wmo:42387:1,2014-12-09T17:20:00Z,28.2670,-88.3990,79.7,163.0,20.8,-2.2,'1111122,1111122,1111122' 
ADCP,ioos:station:wmo:42387:1,2014-12-09T18:20:00Z,28.2670,-88.3990,79.7,168.0,20.4,-1.6,'1111122,1111122,1111122' 
ADCP,ioos:station:wmo:42387:1,2014-12-09T19:20:00Z,28.2670,-88.3990,79.7,174.0,21.4,-0.3,'1111122,1111122,1111122' 
ADCP,ioos:station:wmo:42387:1,2014-12-09T20:20:00Z,28.2670,-88.3990,79.7,177.0,20.3,0.1,'1111122,1111122,1111122' 
ADCP,ioos:station:wmo:42387:1,2014-12-09T21:20:00Z,28.2670,-88.3990,79.7,169.0,18.7,-0.2,'1111122,1111122,1111122' 
ADCP,ioos:station:wmo:42387:1,2014-12-09T22:20:00Z,28.2670,-88.3990,79.7,168.0,15.8,0.2,'1111122,1111122,1111122' 
ADCP,ioos:station:wmo:42387:1,2014-12-09T23:20:00Z,28.2670,-88.3990,79.7,157.0,14.8,0.3,'1111122,1111122,1111122' 
ADCP,ioos:station:wmo:42387:1,2014-12-10T00:20:00Z,28.2670,-88.3990,79.7,144.0,12.9,0.0,'1111122,1111122,1114422' 
ADCP,ioos:station:wmo:42387:1,2014-12-10T01:20:00Z,28.2670,-88.3990,79.7,133.0,14.0,0.4,'1111122,1111122,1111122' 
ADCP,ioos:station:wmo:42387:1,2014-12-10T02:20:00Z,28.2670,-88.3990,79.7,126.0,14.6,-0.1,'1111122,1111122,1111122' 
ADCP,ioos:station:wmo:42387:1,2014-12-10T03:20:00Z,28.2670,-88.3990,79.7,123.0,16.5,1.0,'1111122,1111122,1111122' 
ADCP,ioos:station:wmo:42387:1,2014-12-10T04:20:00Z,28.2670,-88.3990,79.7,125.0,18.3,0.9,'1111122,1111122,1111122' 
ADCP,ioos:station:wmo:42387:1,2014-12-10T05:20:00Z,28.2670,-88.3990,79.7,122.0,17.9,1.0,'1111122,1111122,1111122' 
ADCP,ioos:station:wmo:42387:1,2014-12-10T06:20:00Z,28.2670,-88.3990,79.7,123.0,20.1,1.1,'1111122,1111122,1111122' 
ADCP,ioos:station:wmo:42387:1,2014-12-10T07:20:00Z,28.2670,-88.3990,79.7,122.0,20.7,-0.1,'1111122,1111122,1111122' 
ADCP,ioos:station:wmo:42387:1,2014-12-10T08:20:00Z,28.2670,-88.3990,79.7,130.0,22.4,0.0,'1111122,1111122,1114422' 
ADCP,ioos:station:wmo:42387:1,2014-12-10T09:20:00Z,28.2670,-88.3990,79.7,130.0,20.4,-1.9,'1111122,1111122,1111122' 